User: anonymous
Location: Unspecified
(0.0000°N, 0.0000°E)
Time: 23:13:18
(UTC+02:00)
Language:

Cosmos 1892 Rocket - Orbit

View from above orbital plane
View from above orbital plane
View from above satellite
View from above satellite

Ground track
Ground track

The orbit data is extracted from the following two-line orbital elements,

1 18422U 87088B   14292.69215557  .00000569  00000-0  67769-4 0  3854
2 18422 082.5142 007.0045 0020426 042.5480 069.0944 14.82472085457856
Epoch (UTC): 19 October 2014 16:36:42
Eccentricity: 0.0020426
inclination: 82.5142°
perigee height: 607 km
apogee height: 636 km
right ascension of ascending node: 7.0045°
argument of perigee: 42.5480°
revolutions per day: 14.82472085
mean anomaly at epoch: 69.0944°
orbit number at epoch: 45785

The dashed part of the orbit path shows where the satellite is in the earth's shadow,  

DLR